This is the latest recevied weather packets stored in our database for station/object JH0KSP-13. If no packets are shown the sender has not sent any weather packets the latest 10 day(s).
| Time | Temp. | Humidity | Pressure | Rain* | Wind** | Luminosity | Snow |
|---|---|---|---|---|---|---|---|
| 1777739408 | 12.22° C | 86% | 1013.6 hPa | 0 mm | - | - | - |
| 1777738808 | 12.22° C | 84% | 1013.5 hPa | 0 mm | - | - | - |
| 1777738208 | 12.22° C | 81% | 1013.9 hPa | 0 mm | - | - | - |
| 1777738017 | 12.22° C | 80% | 1013.8 hPa | 0 mm | - | - | - |
| 1777737609 | 12.22° C | 80% | 1013.9 hPa | 0 mm | - | - | - |
| 1777737009 | 12.22° C | 80% | 1014 hPa | 0 mm | - | - | - |
| 1777736817 | 12.22° C | 81% | 1014 hPa | 0 mm | - | - | - |
| 1777736408 | 12.22° C | 80% | 1013.9 hPa | 0 mm | - | - | - |
| 1777735809 | 12.22° C | 79% | 1014 hPa | 0 mm | - | - | - |
| 1777735616 | 12.22° C | 80% | 1014 hPa | 0 mm | - | - | - |
| 1777735209 | 12.78° C | 79% | 1013.9 hPa | 0 mm | - | - | - |
| 1777734608 | 12.78° C | 76% | 1013.9 hPa | 0 mm | - | - | - |
| 1777734416 | 12.78° C | 76% | 1013.9 hPa | 0 mm | - | - | - |
| 1777734009 | 12.78° C | 75% | 1014 hPa | 0 mm | - | - | - |
| 1777733409 | 12.78° C | 74% | 1014 hPa | 0 mm | - | - | - |
| 1777733216 | 12.78° C | 73% | 1014 hPa | 0 mm | - | - | - |
| 1777732808 | 12.78° C | 73% | 1014.2 hPa | 0 mm | - | - | - |
| 1777732209 | 12.78° C | 71% | 1014.2 hPa | 0 mm | - | - | - |
| 1777732016 | 12.78° C | 71% | 1014.2 hPa | 0 mm | - | - | - |
| 1777731609 | 12.78° C | 71% | 1014 hPa | 0 mm | - | - | - |
| 1777731008 | 12.78° C | 68% | 1013.9 hPa | 0 mm | - | - | - |
| 1777730817 | 13.89° C | 68% | 1013.9 hPa | 0 mm | - | - | - |
| 1777730409 | 13.89° C | 68% | 1013.9 hPa | 0 mm | - | - | - |
| 1777729809 | 13.89° C | 63% | 1013.8 hPa | 0 mm | - | - | - |
| 1777729616 | 13.89° C | 62% | 1013.8 hPa | 0 mm | - | - | - |
* Rain latest hour (hover to see other rain measurements)
** Current wind speed in m/s (hover to see current wind gust speed)